This is the latest recevied weather packets stored in our database for station/object KB4MOX. If no packets are shown the sender has not sent any weather packets the latest 10 day(s).
| Time | Temp. | Humidity | Pressure | Rain* | Wind** | Luminosity | Snow |
|---|---|---|---|---|---|---|---|
| 1788616265 | 26.11° C | 97% | 1015.3 hPa | 0 mm | - | 156 W/m² | - |
| 1788615960 | 25.56° C | 98% | 1015.4 hPa | 0 mm | - | 108 W/m² | - |
| 1788615669 | 25° C | 98% | 1015.1 hPa | 0 mm | - | 101 W/m² | - |
| 1788615355 | 25° C | 97% | 1015.5 hPa | 0 mm | - | 84 W/m² | - |
| 1788615054 | 25° C | 97% | 1015.5 hPa | 0 mm | - | 85 W/m² | - |
| 1788614754 | 25° C | 97% | 1015.4 hPa | 0 mm | - | 92 W/m² | - |
| 1788614449 | 24.44° C | 98% | 1015.4 hPa | 0 mm | - | 91 W/m² | - |
| 1788614144 | 24.44° C | 98% | 1015.4 hPa | 0 mm | - | 117 W/m² | - |
| 1788613840 | 24.44° C | 98% | 1015.4 hPa | 0 mm | - | 154 W/m² | - |
| 1788613538 | 24.44° C | 98% | 1015.3 hPa | 0 mm | - | 88 W/m² | - |
| 1788613234 | 23.89° C | 98% | 1015.4 hPa | 0 mm | - | 96 W/m² | - |
| 1788612933 | 23.89° C | 98% | 1015.3 hPa | 0 mm | - | 99 W/m² | - |
| 1788612629 | 23.89° C | 98% | 1015.6 hPa | 0 mm | - | 63 W/m² | - |
| 1788612326 | 23.89° C | 98% | 1015.4 hPa | 0 mm | - | 66 W/m² | - |
| 1788612021 | 23.89° C | 98% | 1015.5 hPa | 0 mm | - | 73 W/m² | - |
| 1788611717 | 23.89° C | 98% | 1015.4 hPa | 0 mm | - | 74 W/m² | - |
| 1788611413 | 23.89° C | 98% | 1015.3 hPa | 0 mm | - | 59 W/m² | - |
| 1788611108 | 23.89° C | 98% | 1015.4 hPa | 0 mm | - | 54 W/m² | - |
| 1788610823 | 23.89° C | 98% | 1015.4 hPa | 0 mm | - | 51 W/m² | - |
| 1788610498 | 23.89° C | 98% | 1015.5 hPa | 0 mm | - | 46 W/m² | - |
| 1788610196 | 23.89° C | 98% | 1015.2 hPa | 0 mm | - | 45 W/m² | - |
| 1788609891 | 23.89° C | 98% | 1015.2 hPa | 0 mm | - | 41 W/m² | - |
| 1788609587 | 23.33° C | 98% | 1015.2 hPa | 0 mm | - | 38 W/m² | - |
| 1788609286 | 23.33° C | 98% | 1015.2 hPa | 0 mm | - | 28 W/m² | - |
| 1788608981 | 23.33° C | 98% | 1015 hPa | 0 mm | - | 23 W/m² | - |
* Rain latest hour (hover to see other rain measurements)
** Current wind speed in m/s (hover to see current wind gust speed)